[[[{"header":{"parameterUnit":"kt","parameterCategory":2,"dx":1,"dy":1,"la1":30.253999710083008,"la2":30.299108505249023,"lo1":-89.0895004272461,"lo2":-89.04439544677734,"nx":28,"ny":28,"refTime":"2022-09-28T21:00:00:Z","depth":0,"parameterNumber":1,"parameterNumberName":"U-component_of_WINDS"},"data":[-3.544,-3.5562,-3.557,-3.5713,-3.5745,-3.5845,-3.5883,-3.5934,-3.5977,-3.6096,-3.6167,-3.6188,-3.6235,-3.6322,-3.64,-3.6408,-3.6442,-3.6477,-3.6482,-3.6311,-3.6289,-3.6267,-3.624,-3.6483,-3.6484,-3.6659,-3.666,-3.6662,-3.5313,-3.5346,-3.5423,-3.5505,-3.5572,-3.5543,-3.5605,-3.5664,-3.5754,-3.5807,-3.5877,-3.5984,-3.6069,-3.6105,-3.6189,-3.6247,-3.6239,-3.6269,-3.6268,-3.6276,-3.6093,-3.6064,-3.6274,-3.6274,-3.6274,-3.6274,-3.6274,-3.6274,-3.5084,-3.5157,-3.5212,-3.5296,-3.534,-3.5395,-3.5465,-3.549,-3.5567,-3.5656,-3.5651,-3.5754,-3.581,-3.5916,-3.5954,-3.6035,-3.6004,-3.6041,-3.6051,-3.6062,-3.6072,-3.5823,-3.6049,-3.6048,-3.6048,-3.6048,-3.6047,0,-3.4921,-3.4924,-3.5,-3.5078,-3.514,-3.5202,-3.526,-3.5304,-3.5314,-3.5377,-3.547,-3.5525,-3.5633,-3.5723,-3.5803,-3.5836,-3.5816,-3.5814,-3.584,-3.5847,-3.5841,-3.5849,-3.5554,-3.5809,-3.5807,-3.5805,-3.5804,-3.5803,-3.4695,-3.4778,-3.484,-3.4891,-3.4926,-3.5009,-3.5061,-3.5064,-3.5119,-3.5191,-3.5256,-3.5343,-3.5415,-3.5562,-3.5593,-3.5675,-3.5667,-3.5763,-3.568,-3.568,-3.5673,-3.567,-3.568,-3.5782,-3.5784,-3.5787,-3.5789,0,-3.4568,-3.4583,-3.4714,-3.4767,-3.4783,-3.487,-3.4916,-3.4988,-3.5005,-3.5108,-3.5132,-3.516,-3.5251,-3.5266,-3.5373,-3.5379,-3.5524,-3.5511,-3.5505,-3.5505,-3.5595,-3.5588,-3.5881,-3.5921,-3.5664,-3.5666,-3.5668,0,-3.4383,-3.4491,-3.4508,-3.4583,-3.4703,-3.4704,-3.4823,-3.4849,-3.4898,-3.4978,-3.4955,-3.5032,-3.5039,-3.5117,-3.5126,-3.5246,-3.5265,-3.5278,-3.5281,-3.5284,-3.5283,-3.5318,-3.5308,-3.5276,-3.5275,-3.5273,-3.5272,0,-3.4186,-3.432,-3.4442,-3.4476,-3.4545,-3.4602,-3.4634,-3.4688,-3.4739,-3.4808,-3.4842,-3.4921,-3.4966,-3.5029,-3.5039,-3.4982,-3.5186,-3.511,-3.52,-3.52,-3.5249,-3.5247,-3.5497,-3.527,-3.527,-3.5269,-3.5269,0,-3.4041,-3.411,-3.4283,-3.434,-3.4376,-3.4456,-3.4535,-3.4606,-3.4666,-3.4676,-3.473,-3.4719,-3.4823,-3.4746,-3.4891,-3.4814,-3.486,-3.4881,-3.4888,-3.4903,-3.4818,-3.4963,-3.5196,-3.5223,-3.491,-3.4907,-3.4904,0,-3.3813,-3.3991,-3.3993,-3.4158,-3.4243,-3.4213,-3.4302,-3.4355,-3.4376,-3.4452,-3.4475,-3.4562,-3.4507,-3.4538,-3.4606,-3.4636,-3.4735,-3.4622,-3.4736,-3.474,-3.4725,-3.4938,-3.4972,-3.5142,-3.4866,-3.487,-3.4873,0,-3.3639,-3.3722,-3.3751,-3.379,-3.386,-3.3931,-3.4032,-3.4118,-3.4169,-3.423,-3.4317,-3.4438,-3.4403,-3.4453,-3.4452,-3.4524,-3.4668,-3.4478,-3.4479,-3.4514,-3.4847,-3.4878,-3.4907,-3.4651,-3.4656,-3.466,-3.4842,0,-3.3423,-3.3514,-3.3592,-3.3679,-3.3736,-3.3839,-3.3856,-3.3913,-3.3907,-3.3928,-3.4054,-3.4103,-3.4192,-3.4227,-3.4222,-3.438,-3.4357,-3.4319,-3.4251,-3.4389,-3.445,-3.4474,-3.4158,-3.4156,-3.4154,-3.4153,0,0,-3.3203,-3.3334,-3.3334,-3.3433,-3.3482,-3.345,-3.356,-3.3603,-3.3693,-3.3728,-3.3688,-3.3867,-3.3909,-3.4062,-3.4106,-3.4141,-3.4173,-3.4124,-3.4322,-3.4341,-3.4358,-3.4423,-3.4448,-3.415,-3.4149,-3.4149,-3.4148,0,-3.3129,-3.3169,-3.3277,-3.3321,-3.3388,-3.3405,-3.343,-3.3492,-3.3511,-3.3634,-3.3609,-3.3687,-3.383,-3.3879,-3.3923,-3.4104,-3.4083,-3.4129,-3.4222,-3.4304,-3.4325,-3.4344,-3.4412,-3.4436,-3.4144,-3.4145,-3.4145,0,-3.2963,-3.3008,-3.3061,-3.3168,-3.3212,-3.33,-3.323,-3.3326,-3.3392,-3.3356,-3.348,-3.351,-3.3577,-3.3718,-3.3782,-3.3749,-3.4001,-3.3924,-3.3935,-3.3944,-3.4025,-3.405,-3.4072,-3.3779,-3.3777,-3.3776,0,0,-3.2897,-3.2982,-3.3032,-3.3154,-3.3183,-3.321,-3.3258,-3.3258,-3.3317,-3.3342,-3.3381,-3.344,-3.3524,-3.3579,-3.3658,-3.381,-3.3826,-3.3878,-3.3895,-3.3909,-3.3926,-3.401,-3.4035,-3.3771,-3.3771,-3.3771,0,0,-3.2867,-3.2929,-3.2912,-3.3056,-3.3113,-3.3172,-3.3246,-3.3228,-3.3301,-3.3291,-3.3297,-3.3313,-3.3445,-3.3476,-3.3406,-3.3635,-3.3565,-3.3582,-3.361,-3.3632,-3.3649,-3.3641,-3.3344,0,0,0,0,0,-3.2801,-3.2921,-3.2905,-3.2932,-3.3069,-3.318,-3.3198,-3.3204,-3.3155,-3.3214,-3.3243,-3.3217,-3.3439,-3.3377,-3.3404,-3.3484,-3.3705,-3.3717,-3.3728,-3.38,-3.3822,-3.3842,0,0,0,0,0,0,-3.2811,-3.2844,-3.2902,-3.2965,-3.2996,-3.3176,-3.3094,-3.3099,-3.3149,-3.3142,-3.3211,-3.3219,-3.3227,-3.3363,-3.3388,-3.3464,-3.3336,-3.371,-3.372,-3.3729,-3.3807,-3.3826,-3.3842,0,0,0,0,0,-3.282,-3.2846,-3.3064,-3.2964,-3.2991,-3.3028,-3.3089,-3.3093,-3.3132,-3.3179,-3.3185,-3.3132,-3.3229,-3.325,-3.3378,-3.3453,-3.3319,-3.3328,-3.3716,-3.3724,-3.3731,-3.3817,0,0,0,0,0,0,-3.2826,-3.2851,-3.307,-3.3078,-3.2919,-3.3018,-3.3033,-3.3088,-3.3165,-3.3173,-3.3099,-3.3092,-3.3232,-3.3248,-3.3264,-3.3448,-3.3305,-3.3315,-3.332,-3.3722,-3.3728,-3.3734,0,0,0,0,0,0,-3.2837,-3.2858,-3.3074,-3.3017,-3.3019,-3.3009,-3.3023,-3.3132,-3.3167,-3.3081,-3.3078,-3.3095,-3.3208,-3.3247,-3.3259,-3.343,-3.3295,-3.3304,-3.331,-3.3314,-3.3727,-3.3732,0,0,0,0,0,0,-3.2846,-3.2864,-3.3015,-3.3017,-3.3018,-3.3114,-3.3106,-3.3246,-3.3117,-3.3078,-3.3105,-3.31,-3.3208,-3.3221,-3.3256,-3.3422,-3.3428,-3.3295,-3.3301,-3.3305,-3.3308,0,0,0,0,0,0,0,-3.2853,-3.2728,-3.3019,-3.3016,-3.3017,-3.3156,-3.3159,-3.3161,-3.3115,-3.3111,-3.3106,-3.3102,-3.3244,-3.3254,-3.3264,-3.3415,0,0,-3.3294,-3.3299,0,0,0,0,0,0,0,0,-3.272,-3.2726,-3.302,-3.3021,-3.3023,-3.3157,-3.3159,-3.316,-3.3115,-3.3111,-3.3107,-3.3104,-3.3247,-3.3255,-3.3263,0,0,0,0,0,0,0,0,0,0,0,0,0,0,0,-3.302,-3.3021,0,-3.3157,-3.3158,-3.316,-3.3114,-3.3111,-3.3108,-3.3105,-3.3249,-3.3256,-3.3262,0,0,0,0,0,0,0,0,0,0,0,0,0,0,0,0,0,0,0,0,0,0,0,0,0,0,0,0,0,0,0,0,0,0,0,0,0,0,0,0,0,0,0,0,0,0,0,0,0,0,0,0,0,0,0,0,0,0,0,0,0,0,0,0,0,0,0,0,0]}],[{"header":{"parameterUnit":"kt","parameterCategory":2,"dx":1,"dy":1,"la1":30.253999710083008,"la2":30.299108505249023,"lo1":-89.0895004272461,"lo2":-89.04439544677734,"nx":28,"ny":28,"refTime":"2022-09-28T21:00:00:Z","depth":0,"parameterNumber":2,"parameterNumberName":"V-component_of_WINDS"},"data":[-15.3701,-15.3927,-15.3945,-15.4209,-15.4268,-15.4451,-15.452,-15.4611,-15.4686,-15.49,-15.5025,-15.506,-15.5136,-15.5284,-15.5417,-15.5427,-15.5483,-15.5553,-15.5553,-15.5233,-15.5189,-15.5147,-15.5097,-15.5564,-15.5565,-15.5884,-15.5887,-15.5889,-15.3467,-15.353,-15.3675,-15.3826,-15.395,-15.3894,-15.4007,-15.4112,-15.4275,-15.4368,-15.4491,-15.4679,-15.4826,-15.4879,-15.5022,-15.5122,-15.5102,-15.516,-15.5153,-15.5165,-15.4823,-15.477,-15.5175,-15.5175,-15.5175,-15.5175,-15.5174,-15.5174,-15.3046,-15.3181,-15.3283,-15.344,-15.3519,-15.3619,-15.3748,-15.379,-15.3928,-15.4084,-15.4071,-15.4252,-15.4344,-15.4521,-15.4581,-15.472,-15.4656,-15.4723,-15.474,-15.4757,-15.4776,-15.4316,-15.4743,-15.4742,-15.4741,-15.474,-15.474,0,-15.2742,-15.2748,-15.2887,-15.3033,-15.3147,-15.3259,-15.3363,-15.3443,-15.3452,-15.3564,-15.3728,-15.3824,-15.401,-15.4162,-15.4296,-15.4345,-15.4293,-15.4288,-15.4334,-15.4345,-15.4338,-15.4345,-15.3788,-15.4275,-15.4271,-15.4268,-15.4266,-15.4264,-15.232,-15.2474,-15.2587,-15.2682,-15.2744,-15.2897,-15.299,-15.2986,-15.3085,-15.3208,-15.3324,-15.3477,-15.36,-15.3853,-15.3892,-15.403,-15.4005,-15.419,-15.4025,-15.4029,-15.4009,-15.4001,-15.4016,-15.4222,-15.4228,-15.4232,-15.4236,0,-15.208,-15.2106,-15.2349,-15.2443,-15.2471,-15.2631,-15.2709,-15.284,-15.2864,-15.3047,-15.3089,-15.3125,-15.3282,-15.3292,-15.3471,-15.3471,-15.3729,-15.3701,-15.3699,-15.3694,-15.3862,-15.3846,-15.4402,-15.4474,-15.3989,-15.3993,-15.3997,0,-15.173,-15.1931,-15.1956,-15.2096,-15.2319,-15.231,-15.2529,-15.2571,-15.2652,-15.2795,-15.2739,-15.2874,-15.2865,-15.3001,-15.3,-15.3213,-15.3245,-15.3258,-15.3255,-15.3264,-15.3263,-15.3314,-15.3292,-15.3242,-15.3239,-15.3237,-15.3234,0,-15.1353,-15.1601,-15.1828,-15.1888,-15.2006,-15.2112,-15.2165,-15.2253,-15.2343,-15.246,-15.2518,-15.2653,-15.2727,-15.2831,-15.283,-15.2718,-15.3089,-15.2934,-15.3102,-15.3102,-15.3183,-15.3179,-15.3668,-15.3231,-15.323,-15.3229,-15.3228,0,-15.1073,-15.1198,-15.1522,-15.162,-15.1684,-15.1831,-15.1967,-15.2096,-15.2193,-15.2203,-15.2294,-15.2257,-15.2443,-15.2289,-15.2544,-15.2399,-15.2474,-15.2503,-15.2515,-15.2532,-15.236,-15.2636,-15.3101,-15.315,-15.2548,-15.2542,-15.2537,0,-15.0637,-15.097,-15.0966,-15.1272,-15.1428,-15.1357,-15.1519,-15.1607,-15.1635,-15.1767,-15.1795,-15.1945,-15.1832,-15.188,-15.2005,-15.2039,-15.2227,-15.2013,-15.2199,-15.2206,-15.2179,-15.2606,-15.2674,-15.2998,-15.2465,-15.2472,-15.2478,0,-15.0301,-15.0445,-15.05,-15.0568,-15.0686,-15.0813,-15.1,-15.1148,-15.1237,-15.134,-15.1495,-15.1703,-15.1627,-15.1706,-15.1688,-15.1818,-15.2099,-15.1718,-15.172,-15.1787,-15.2428,-15.2492,-15.2547,-15.2058,-15.2067,-15.2074,-15.242,0,-14.9875,-15.0044,-15.0193,-15.0344,-15.0444,-15.0635,-15.065,-15.0753,-15.0728,-15.0753,-15.0979,-15.1049,-15.1195,-15.1258,-15.1233,-15.1528,-15.1479,-15.1395,-15.1246,-15.1526,-15.164,-15.1687,-15.1075,-15.107,-15.1067,-15.1064,0,0,-14.9451,-14.9693,-14.9682,-14.9864,-14.9948,-14.9871,-15.0074,-15.0145,-15.0292,-15.035,-15.0267,-15.0572,-15.0632,-15.0905,-15.0993,-15.1051,-15.1104,-15.1005,-15.1392,-15.1429,-15.1463,-15.1585,-15.1634,-15.1057,-15.1056,-15.1055,-15.1053,0,-14.9299,-14.937,-14.9573,-14.9648,-14.9759,-14.9776,-14.9824,-14.9918,-14.9943,-15.0165,-15.0094,-15.0229,-15.0472,-15.0546,-15.0615,-15.0973,-15.091,-15.1016,-15.1207,-15.1355,-15.1396,-15.1433,-15.1562,-15.1608,-15.1044,-15.1045,-15.1045,0,-14.8972,-14.9044,-14.9144,-14.9332,-14.9403,-14.9562,-14.9411,-14.9585,-14.9702,-14.9602,-14.9823,-14.9863,-14.9961,-15.0217,-15.0332,-15.0259,-15.0734,-15.0584,-15.0608,-15.062,-15.0764,-15.0814,-15.0858,-15.0273,-15.027,-15.0268,0,0,-14.8838,-14.8995,-14.9068,-14.9301,-14.935,-14.9377,-14.9462,-14.9447,-14.954,-14.9577,-14.9628,-14.9718,-14.9858,-14.9951,-15.0083,-15.0361,-15.038,-15.0489,-15.0525,-15.0555,-15.0584,-15.0735,-15.0785,-15.0258,-15.0257,-15.0257,0,0,-14.8773,-14.8869,-14.8829,-14.9101,-14.9194,-14.9279,-14.9419,-14.937,-14.9491,-14.9469,-14.9446,-14.9469,-14.9707,-14.9748,-14.9611,-15.0029,-14.9881,-14.9914,-14.9994,-15.004,-15.0076,-15.0061,-14.9462,0,0,0,0,0,-14.8625,-14.8858,-14.882,-14.8868,-14.9103,-14.93,-14.933,-14.9319,-14.9216,-14.9327,-14.9361,-14.9288,-14.967,-14.9548,-14.9593,-14.9746,-15.0126,-15.0149,-15.0171,-15.034,-15.0388,-15.0429,0,0,0,0,0,0,-14.8643,-14.8702,-14.8814,-14.8909,-14.8962,-14.9292,-14.9114,-14.9118,-14.9203,-14.9187,-14.9284,-14.9291,-14.9282,-14.9523,-14.9564,-14.971,-14.9448,-15.0135,-15.0155,-15.0173,-15.0357,-15.0396,-15.043,0,0,0,0,0,-14.8658,-14.8705,-14.9087,-14.8905,-14.8951,-14.8993,-14.9105,-14.9107,-14.9172,-14.9225,-14.923,-14.9157,-14.9286,-14.932,-14.9548,-14.9692,-14.9419,-14.9435,-15.0148,-15.0163,-15.0177,-15.0376,0,0,0,0,0,0,-14.8669,-14.8706,-14.9095,-14.9109,-14.8817,-14.8974,-14.8998,-14.9098,-14.9205,-14.9212,-14.9096,-14.9081,-14.9293,-14.9317,-14.9343,-14.9687,-14.9396,-14.9412,-14.9422,-15.016,-15.0172,-15.0183,0,0,0,0,0,0,-14.868,-14.8718,-14.9102,-14.8991,-14.8992,-14.8957,-14.8979,-14.9169,-14.9207,-14.9069,-14.906,-14.9088,-14.9251,-14.9317,-14.9336,-14.9634,-14.9378,-14.9393,-14.9404,-14.941,-15.017,-15.0179,0,0,0,0,0,0,-14.8696,-14.8728,-14.8987,-14.8988,-14.8988,-14.9137,-14.9123,-14.9364,-14.9117,-14.9065,-14.9094,-14.9083,-14.9253,-14.9272,-14.9333,-14.9622,-14.9631,-14.9379,-14.9389,-14.9396,-14.9401,0,0,0,0,0,0,0,-14.8709,-14.8497,-14.9017,-14.8986,-14.8985,-14.9232,-14.9236,-14.924,-14.9114,-14.9105,-14.9096,-14.9088,-14.9293,-14.931,-14.9326,-14.9612,0,0,-14.9377,-14.9385,0,0,0,0,0,0,0,0,-14.8483,-14.8494,-14.9017,-14.902,-14.9023,-14.9233,-14.9236,-14.9239,-14.9113,-14.9105,-14.9098,-14.9091,-14.9298,-14.9311,-14.9324,0,0,0,0,0,0,0,0,0,0,0,0,0,0,0,-14.9017,-14.902,0,-14.9233,-14.9236,-14.9238,-14.9112,-14.9106,-14.91,-14.9094,-14.9301,-14.9312,-14.9323,0,0,0,0,0,0,0,0,0,0,0,0,0,0,0,0,0,0,0,0,0,0,0,0,0,0,0,0,0,0,0,0,0,0,0,0,0,0,0,0,0,0,0,0,0,0,0,0,0,0,0,0,0,0,0,0,0,0,0,0,0,0,0,0,0,0,0,0,0]}]]]